{"data":{"norad_id":54666,"epoch":"2026-09-20T03:35:20.999040Z","epoch_age_seconds":56051,"freshness":"FRESH","line1":"1 54666U 22166AA  26263.14954860  .00000083  00000+0  16995-3 0  9993","line2":"2 54666  87.9277 225.0957 0002232  75.7619 284.3763 13.21823737184095","mean_motion":13.21823737,"eccentricity":0.0002232,"inclination_deg":87.9277,"raan_deg":225.0957,"arg_perigee_deg":75.7619,"mean_anomaly_deg":284.3763,"bstar":0.00016995,"rev_number":18409,"period_min":108.94039497794,"perigee_km":1176.0755156438,"apogee_km":1179.4484689539,"semimajor_km":7555.8989922989,"source":"CELESTRAK","updated_at":"2026-09-20T09:00:44.746131Z"}}